Theta_e
318 317 317 315 315 315 317 320 322 324 323 322 322 324 324 320 314 315 317 319 320 323 324 323 323 318 314 315 317 318 315 317 318 315 317 319 316 318 320 321 322 326 328 330 334
318 317 316 315 315 315 317 319 322 323 323 324 321 321 324 324 315 315 317 319 320 323 324 326 326 325 315 315 316 315 315 317 317 315 316 318 318 319 321 324 330 328 325 332 333
318 317 315 315 315 315 319 320 322 323 322 324 324 321 319 322 317 317 318 315 321 324 324 326 324 318 314 315 316 315 316 315 316 317 318 317 316 317 320 318 328 328 332 333 333
318 317 315 315 314 316 319 322 322 322 324 323 322 317 319 321 323 323 319 313 312 314 319 318 316 315 314 314 316 315 316 316 316 318 317 316 317 316 317 317 319 322 327 332 333
318 316 315 313 315 317 319 321 323 322 322 318 318 319 320 320 321 315 323 318 316 315 314 319 318 315 313 314 315 315 315 316 316 318 318 317 316 315 317 317 321 328 331 332 332
317 316 314 314 315 316 319 320 321 317 317 318 319 319 320 318 320 312 320 321 321 315 318 321 323 321 315 315 314 315 315 315 315 316 316 315 314 316 316 318 327 331 332 331 330
317 316 314 314 315 316 318 320 322 317 316 316 318 319 318 319 320 312 316 322 321 320 318 316 315 320 317 315 321 314 314 313 313 314 314 315 314 313 316 320 328 331 329 330 330
318 317 314 313 314 315 317 321 321 317 314 315 316 315 314 316 318 312 315 322 323 323 323 313 312 318 313 316 313 313 311 312 312 313 313 313 314 312 314 322 329 329 327 328 330
318 317 314 314 314 315 317 318 319 317 314 314 312 312 311 312 312 313 315 320 323 323 320 313 313 312 312 311 312 311 311 312 313 312 311 312 313 312 313 316 325 328 327 328 329
318 316 314 314 315 316 317 319 320 318 317 316 314 313 311 311 312 314 317 317 323 320 318 317 312 310 309 309 314 310 311 311 312 311 310 310 311 309 311 312 313 315 319 325 329
318 316 314 315 316 317 317 318 317 316 316 313 312 310 310 310 312 312 315 317 318 314 311 311 310 312 312 309 309 310 311 312 311 310 311 309 311 309 311 310 310 311 312 317 321
318 315 314 315 316 316 317 316 315 314 311 310 311 310 309 311 311 312 312 313 313 317 311 309 311 310 310 310 311 310 311 310 311 310 311 309 310 310 309 310 311 311 312 315 319
317 314 314 313 315 316 317 314 312 312 309 310 311 310 310 310 310 311 312 312 312 316 313 311 311 310 311 310 311 309 309 308 311 310 309 309 309 311 310 310 311 311 312 314 315
315 314 314 314 315 315 315 312 310 310 306 309 309 309 310 311 310 311 312 312 311 312 315 312 311 310 311 311 310 309 308 309 309 308 309 307 309 305 307 308 309 311 311 312 312
316 314 313 313 315 315 313 310 309 309 309 307 308 309 309 310 310 310 311 311 312 311 312 313 311 310 311 311 309 310 309 309 308 307 308 308 306 304 306 307 308 309 310 311 311
312 315 313 314 315 314 310 310 310 309 307 309 308 309 309 309 310 310 310 310 311 311 311 313 309 310 311 310 309 309 310 308 309 308 308 307 306 305 306 308 309 308 310 311 311
313 313 314 314 314 313 311 311 308 309 307 308 308 309 308 308 309 308 309 308 308 310 311 309 309 308 311 311 310 310 310 310 311 311 309 305 304 307 305 305 306 308 310 310 311
313 312 314 314 314 311 312 307 304 305 308 307 308 309 309 309 309 308 309 310 307 308 309 310 311 308 308 310 310 308 310 309 309 309 307 305 308 308 306 307 308 310 311 311 311
312 315 314 314 313 311 311 310 307 307 308 308 308 309 308 309 308 307 308 310 309 306 310 310 310 308 308 309 309 310 308 306 307 297 307 304 304 305 309 309 308 309 310 311 311
312 312 312 313 313 312 311 308 307 307 307 308 308 307 308 309 308 306 308 309 309 306 308 308 310 309 308 309 309 309 307 310 306 309 308 306 306 306 308 310 307 307 308 310 310
310 312 311 311 312 312 311 308 308 308 308 307 307 307 307 308 307 307 307 307 309 306 307 309 310 309 309 309 309 308 308 306 307 307 309 305 306 302 306 309 308 308 308 310 310
302 304 310 308 311 311 310 307 309 310 309 309 307 307 307 308 308 308 307 308 310 307 308 309 309 309 309 308 307 307 307 307 309 307 305 306 306 306 304 305 309 308 309 310 310
300 300 309 309 310 311 310 308 309 311 310 310 309 308 307 308 309 308 308 308 308 308 309 309 309 310 310 309 308 308 307 307 306 306 308 310 307 305 306 305 309 308 310 310 310
300 304 304 309 306 310 310 309 309 311 311 312 311 309 307 308 309 308 310 310 308 309 309 310 309 310 310 309 308 309 308 307 308 308 306 305 307 307 306 306 307 309 310 310 310
299 299 299 306 306 309 309 308 308 311 311 312 312 309 309 309 310 310 310 309 309 309 308 309 309 308 309 308 308 308 309 308 308 309 308 309 304 305 305 306 308 309 309 309 310
299 299 300 300 305 308 309 308 308 311 311 313 312 311 310 309 309 310 310 308 309 309 308 307 305 308 309 310 309 309 307 307 308 308 305 306 305 304 307 307 308 308 309 308 310
299 299 299 300 305 308 308 307 308 310 309 311 311 312 312 312 310 310 310 309 309 310 310 309 307 305 304 306 308 310 309 307 308 308 308 308 309 303 305 306 308 308 309 310 311
Wind_Speed
40 39 36 33 31 28 46 46 42 33 28 24 23 22 21 28 26 24 21 24 20 26 28 27 20 12 8 6 4 3 4 3 5 7 5 8 5 6 7 13 7 8 13 26 32
41 38 34 32 31 30 41 45 41 35 31 28 25 20 24 24 30 27 20 22 21 20 25 29 27 19 9 6 4 3 3 8 5 5 7 11 13 12 6 8 4 10 11 35 36
41 38 34 33 30 36 37 38 39 37 32 29 26 21 21 23 23 29 24 19 18 28 25 25 23 17 7 7 4 3 5 5 4 5 14 16 13 5 18 3 12 23 32 38 37
41 38 35 32 32 39 35 36 31 29 33 30 25 21 20 22 9 11 36 28 20 22 28 26 22 14 2 4 6 2 7 3 4 5 17 16 13 7 8 6 15 18 30 36 39
41 38 34 33 37 37 34 35 36 31 34 30 25 23 25 21 11 5 22 37 30 24 26 32 25 11 3 3 4 2 4 3 4 12 14 15 9 7 10 9 19 26 30 33 37
39 36 33 35 37 36 33 33 33 34 30 26 22 27 28 14 19 5 15 44 37 28 26 26 25 19 5 6 5 3 13 2 4 10 12 9 6 10 9 14 28 30 31 31 35
37 35 37 37 38 36 33 34 35 33 28 24 24 27 24 16 20 8 17 37 45 38 25 21 13 15 9 8 23 3 4 2 3 6 4 14 2 5 17 23 31 31 28 28 32
41 37 39 39 37 38 35 35 35 31 26 24 24 21 7 15 16 12 17 33 35 41 34 15 9 21 8 9 9 6 4 4 3 6 3 4 7 5 21 28 31 29 27 27 31
40 40 41 40 38 40 37 32 33 33 26 24 22 10 3 19 17 12 17 31 34 35 34 18 10 9 15 8 3 1 5 4 1 7 3 3 4 6 22 24 28 28 27 27 27
44 42 41 41 39 41 38 34 31 36 29 23 10 5 9 15 21 21 20 21 29 34 20 23 13 6 4 7 18 7 6 3 5 6 2 4 4 4 19 21 25 26 26 28 29
41 46 46 43 42 42 43 41 32 13 39 11 16 5 9 20 22 22 26 23 17 15 11 17 7 21 19 3 6 8 6 7 3 3 4 8 4 9 15 15 17 20 24 26 27
43 51 48 45 43 44 48 35 27 15 13 6 6 4 14 21 16 30 26 12 9 15 6 5 18 8 8 9 4 6 9 5 0 1 3 4 8 3 8 10 22 26 26 29 28
41 54 51 48 45 46 47 29 20 35 8 5 21 9 25 19 10 32 27 18 12 11 15 5 3 8 7 6 9 4 7 5 5 3 3 4 6 4 6 9 14 19 25 28 29
51 53 53 52 49 49 39 37 24 26 5 6 9 8 11 14 6 32 28 20 5 12 15 7 4 10 7 13 9 6 7 7 7 6 5 4 5 6 7 8 8 17 23 27 28
29 56 57 57 40 46 46 38 36 8 6 11 7 10 15 10 21 23 30 13 17 13 5 11 10 9 12 13 9 6 7 9 7 5 5 2 1 6 2 6 8 22 24 25 27
40 53 57 50 39 47 42 37 27 3 6 9 12 11 8 7 6 27 25 8 24 13 11 9 7 8 9 1 8 8 7 6 5 3 2 6 7 5 6 10 14 8 27 26 26
36 52 54 47 48 51 41 41 4 5 4 8 7 7 11 6 5 7 17 8 8 12 18 7 5 3 17 4 0 6 9 2 0 2 6 3 4 8 6 7 9 22 34 29 27
24 57 56 51 53 51 43 8 4 4 8 5 7 15 9 11 3 7 15 12 9 6 9 7 7 8 6 9 8 8 12 6 7 5 3 2 6 6 5 7 13 20 35 29 27
25 52 41 47 56 51 32 14 9 10 8 9 8 16 6 8 8 7 16 21 10 9 8 13 6 1 2 2 6 6 7 6 7 3 3 4 6 8 0 1 7 20 31 32 29
19 49 30 48 54 44 13 9 6 7 10 19 7 7 9 21 8 10 17 16 9 11 4 6 4 1 1 1 0 5 8 3 2 6 4 4 4 5 6 10 8 15 28 33 28
13 21 37 55 51 31 18 12 4 8 17 7 7 7 7 13 7 11 17 3 16 8 5 4 4 2 3 4 8 2 3 3 5 5 6 2 6 8 16 16 17 19 27 34 32
4 3 43 62 10 9 17 9 7 5 10 5 5 6 11 15 5 9 14 6 30 11 8 2 5 3 6 1 1 2 7 7 5 6 1 3 6 2 6 8 16 19 31 32 32
4 3 44 50 11 15 12 7 5 6 6 6 4 4 5 12 5 4 7 9 21 14 12 7 2 3 3 2 1 5 5 5 5 3 8 6 6 1 2 7 21 26 32 35 33
5 3 9 23 4 20 14 20 5 6 4 4 5 6 7 7 1 9 4 2 8 20 13 15 4 6 9 8 7 5 6 6 8 4 4 7 5 5 5 8 15 24 35 37 37
3 2 2 7 7 20 15 24 13 7 2 6 3 7 9 5 4 6 5 4 4 16 7 5 6 5 2 4 11 6 9 15 13 21 13 21 11 9 8 12 25 27 30 37 40
2 2 4 2 8 22 14 26 22 3 6 3 7 5 4 8 7 8 9 3 7 1 6 2 1 3 1 6 0 4 10 12 15 12 9 2 6 8 12 14 19 29 34 36 43
5 6 3 5 5 16 10 17 21 9 8 8 9 6 6 4 7 11 8 14 9 10 14 7 5 3 4 2 3 3 12 15 16 17 18 15 22 7 5 13 25 30 37 44 47
Wind_Direction
209 205 206 206 207 213 199 199 197 199 194 191 200 199 200 190 174 172 181 202 200 202 200 185 176 176 29 305 249 223 78 177 209 152 224 190 125 147 150 142 145 174 175 172 165
205 203 201 203 201 203 194 198 196 196 192 188 192 187 187 191 187 188 170 191 200 204 196 182 183 199 336 291 257 167 145 206 200 189 184 178 144 142 131 136 94 134 172 161 170
201 199 196 198 201 195 194 193 195 201 194 188 196 189 173 181 191 215 174 159 196 215 198 185 189 177 225 264 243 218 193 204 222 206 192 160 150 147 143 226 177 151 154 164 174
198 195 194 195 195 192 192 189 185 187 190 192 192 185 170 169 177 212 191 164 161 170 185 169 171 161 241 238 234 234 237 200 210 172 169 158 161 136 155 215 183 177 166 169 177
194 190 191 188 183 192 188 185 185 189 179 180 180 171 169 185 199 166 192 184 179 180 178 173 185 165 176 258 250 213 290 211 184 172 171 153 153 160 202 189 168 166 169 177 182
186 187 185 177 183 189 184 183 184 170 172 172 168 167 173 194 193 185 186 194 190 174 180 185 196 191 31 301 272 233 232 276 202 146 163 146 150 150 185 170 166 172 179 183 190
189 185 179 178 183 187 182 180 183 174 164 154 160 170 180 187 191 187 189 191 198 190 189 173 151 165 169 324 271 240 132 34 247 186 143 136 79 195 175 170 171 180 185 191 195
188 185 178 181 181 184 183 177 185 168 157 150 152 162 201 178 176 174 164 189 199 204 204 175 190 193 167 220 265 145 87 147 245 194 163 140 221 210 172 173 179 183 188 192 198
184 183 182 181 180 179 179 177 178 165 156 155 165 167 203 172 173 167 172 186 195 199 192 156 230 215 213 204 187 149 175 187 222 211 132 150 210 202 179 180 186 194 193 196 199
183 181 180 176 178 173 169 169 172 161 161 161 181 181 207 186 175 161 179 178 176 180 183 215 209 186 229 183 195 158 139 153 179 216 181 173 236 180 184 191 198 199 198 202 205
188 179 177 172 173 168 162 155 147 148 159 170 181 207 182 168 170 161 164 156 157 163 186 179 175 205 206 144 155 142 138 171 218 203 146 205 218 206 191 201 211 211 209 203 204
195 175 174 170 172 170 167 161 166 175 125 139 216 209 166 161 155 155 158 121 142 180 198 164 215 182 154 181 189 142 162 186 70 66 160 164 232 234 205 216 210 208 207 201 198
188 175 171 169 174 172 167 167 159 151 122 167 179 175 154 165 166 171 172 140 151 182 201 183 260 174 163 176 194 200 169 174 162 140 60 109 304 212 233 220 216 211 208 200 203
178 176 170 170 172 174 166 161 155 146 102 177 192 205 181 162 159 172 180 152 125 195 214 263 193 184 189 198 188 203 195 168 148 132 189 157 255 246 216 200 203 200 200 202 198
194 174 172 175 168 169 163 163 153 154 142 164 174 173 177 183 139 185 173 154 158 161 200 205 226 198 198 203 167 197 143 162 160 148 124 205 148 261 136 213 221 209 197 190 199
195 180 172 170 171 169 161 165 160 91 213 176 153 170 142 183 168 159 182 160 168 147 205 251 279 190 193 282 187 142 98 51 66 101 242 197 171 253 188 205 208 199 202 197 201
190 184 177 172 168 165 163 151 111 177 181 167 173 166 152 143 118 168 178 190 161 157 181 170 208 210 167 203 235 164 146 131 142 184 217 158 159 239 229 234 208 203 203 198 200
182 185 175 174 170 161 160 151 129 160 175 117 133 138 169 140 145 165 175 200 237 147 151 160 200 186 175 193 182 191 175 154 175 188 205 122 226 243 223 256 235 225 207 191 192
182 172 172 169 175 167 163 181 190 173 150 128 99 152 165 192 134 150 190 200 199 199 168 178 181 208 184 156 174 190 187 153 98 20 75 212 281 301 205 109 169 175 182 186 190
176 168 169 173 175 169 176 179 148 177 123 148 147 183 170 179 150 176 178 201 196 190 206 181 132 53 124 191 14 189 156 106 15 136 219 260 263 232 232 223 183 176 182 187 188
178 169 169 173 171 167 191 189 170 182 148 150 148 152 162 178 163 181 183 229 188 187 182 126 113 155 110 208 170 146 202 77 121 149 177 180 253 214 205 207 192 189 181 185 187
110 141 158 165 168 187 189 159 187 155 195 180 121 116 163 170 141 173 188 185 188 155 156 113 102 145 193 261 318 277 208 175 177 219 284 160 263 176 226 207 180 176 185 190 192
89 42 158 172 176 186 163 201 190 142 186 169 132 150 146 167 149 165 174 206 193 175 164 175 130 96 51 8 262 225 207 174 107 77 199 177 252 20 313 171 182 177 188 191 191
105 159 169 188 228 172 168 190 177 189 169 130 124 112 116 158 195 186 126 147 174 198 181 141 144 170 190 208 134 210 210 189 186 178 184 223 221 245 215 185 178 184 193 194 193
44 67 93 182 196 173 172 184 184 169 165 141 77 151 150 138 122 150 142 124 43 171 145 151 190 182 254 208 190 203 204 196 199 217 198 236 202 225 213 195 194 192 188 192 196
95 35 22 26 160 162 185 192 185 158 137 172 136 142 126 148 181 173 132 171 169 265 127 63 201 135 350 339 230 186 197 188 212 226 250 177 247 212 231 188 184 195 190 192 201
117 67 54 359 168 167 188 178 192 139 17 142 143 119 101 144 124 168 144 150 158 167 171 125 128 95 250 285 78 314 207 196 219 218 218 223 237 157 187 193 195 198 200 205 209